[[{"header":{"parameterUnit":"m.s-1","parameterCategory":1,"la1":30.2992,"la2":30.254,"lo1":-89.0895,"lo2":-89.0443,"dy":0.0025,"dx":0.0025,"nx":19,"ny":19,"refTime":"2026-05-13T09:00:00:Z","depth":0,"parameterNumber":2,"parameterNumberName":"U-component_of_WINDS"},"data":[0,0,0,0.8379,0.8383,0.8573,0.8573,0.8813,0.8815,0,0,0,0,0,0,0,0,0,0,0,0.8318,0.832,0.8379,0.8384,0.8573,0.8573,0.8812,0.8815,0,0,0,0,0,0,0,0,0,0,0,0.8318,0.8319,0.8321,0.8384,0.8572,0.8574,0.8812,0.8671,0,0,0,0,0,0,0,0,0,0,0.8488,0.8426,0.8319,0.8321,0.8385,0.8572,0.8574,0.8664,0.868,0.8725,0,0.8761,0,0.8792,0.883,0.8831,0,0,0,0.8388,0.8413,0.8468,0.8322,0.8387,0.8572,0.8488,0.8673,0.869,0.8745,0.8765,0.8774,0.8796,0.8832,0.8833,0.9075,0.9076,0,0,0.8377,0.835,0.8456,0.8479,0.8447,0.8482,0.8494,0.8683,0.8704,0.8766,0.8779,0.88,0.8833,0.8835,0.9074,0.9076,0,0,0,0.8344,0.8343,0.8394,0.8469,0.8503,0.8488,0.8502,0.8695,0.8714,0.8782,0.8802,0.8835,0.8838,0.9073,0.9075,0.9095,0,0,0,0.8338,0.8324,0.8389,0.8374,0.85,0.8601,0.8509,0.8701,0.8723,0.8801,0.8835,0.884,0.9072,0.9074,0.9092,0.9109,0,0,0,0.8308,0.832,0.8346,0.8372,0.8453,0.8599,0.8628,0.8706,0.8735,0.8831,0.8841,0.9072,0.9074,0.9089,0.9105,0.9165,0,0,0,0.8268,0.836,0.8346,0.8458,0.8451,0.8608,0.8627,0.8747,0.8831,0.8836,0.9073,0.9075,0.9089,0.9102,0.9162,0.9211,0.9229,0,0,0.837,0.8372,0.844,0.8432,0.8585,0.8582,0.874,0.8843,0.8878,0.9008,0.9015,0.9093,0.9104,0.9165,0.9336,0.935,0,0,0,0.8463,0.8512,0.8559,0.8637,0.8718,0.879,0.8872,0.8911,0.9023,0.8938,0.9132,0.914,0.9176,0.9201,0.9213,0.9246,0.9085,0.9084,0.9084,0.8569,0.8608,0.8724,0.8786,0.8863,0.8948,0.9015,0.9082,0.9099,0.9145,0.9184,0.9283,0.9311,0.932,0.9354,0.9212,0.9212,0.9213,0.9213,0.8722,0.8798,0.882,0.894,0.8982,0.9085,0.9172,0.9181,0.9285,0.9256,0.929,0.9256,0.9333,0.9366,0.9215,0.9214,0.9214,0.9214,0.9214,0.8796,0.8839,0.8884,0.9004,0.9093,0.9154,0.9253,0.9288,0.9322,0.9356,0.9402,0.9402,0.9407,0.9375,0.9376,0.9376,0.9376,0.9376,0.9377,0.8854,0.8905,0.8982,0.9078,0.9134,0.9213,0.9302,0.936,0.9433,0.9451,0.9452,0.9466,0.9333,0.9299,0.9382,0.9381,0.9381,0.938,0.938,0.8995,0.8969,0.9089,0.9145,0.9262,0.9349,0.9393,0.9509,0.9562,0.961,0.9618,0.9514,0.9519,0.951,0.9482,0.9608,0.9608,0.9608,0.9608,0.9057,0.9063,0.9195,0.9283,0.9375,0.9428,0.9566,0.9637,0.9707,0.9744,0.9731,0.9697,0.9686,0.9698,0.9685,0.966,0.9828,0.9828,0.9828,0.9147,0.9164,0.9272,0.9339,0.9434,0.9515,0.9647,0.9751,0.9825,0.9838,0.9773,0.9764,0.971,0.969,0.97,0.9679,0.9633,0,0]},{"header":{"parameterUnit":"m.s-1","parameterCategory":1,"la1":30.2992,"la2":30.254,"lo1":-89.0895,"lo2":-89.0443,"dy":0.0025,"dx":0.0025,"nx":19,"ny":19,"refTime":"2026-05-13T09:00:00:Z","depth":0,"parameterNumber":3,"parameterNumberName":"V-component_of_WINDS"},"data":[0,0,0,-0.175,-0.1748,-0.1681,-0.1681,-0.1573,-0.1572,0,0,0,0,0,0,0,0,0,0,0,-0.1756,-0.1755,-0.175,-0.1748,-0.1681,-0.1681,-0.1573,-0.1572,0,0,0,0,0,0,0,0,0,0,0,-0.1757,-0.1755,-0.1754,-0.1748,-0.1681,-0.1681,-0.1574,-0.1632,0,0,0,0,0,0,0,0,0,0,-0.1701,-0.1693,-0.1756,-0.1754,-0.1747,-0.1681,-0.1681,-0.1635,-0.1628,-0.1594,0,-0.156,0,-0.1564,-0.1563,-0.1563,0,0,0,-0.1758,-0.1699,-0.1693,-0.1754,-0.1746,-0.1681,-0.1714,-0.1632,-0.1624,-0.1585,-0.1558,-0.1555,-0.1562,-0.1562,-0.1562,-0.133,-0.1328,0,0,-0.1762,-0.1737,-0.1699,-0.1688,-0.1696,-0.1716,-0.1712,-0.1627,-0.1597,-0.1558,-0.1553,-0.156,-0.1562,-0.1561,-0.1331,-0.1329,0,0,0,-0.1766,-0.1739,-0.1736,-0.1691,-0.1681,-0.1714,-0.1709,-0.1601,-0.1602,-0.1552,-0.1559,-0.1561,-0.1559,-0.1333,-0.133,-0.1228,0,0,0,-0.1768,-0.1741,-0.1737,-0.1721,-0.1682,-0.164,-0.1683,-0.1607,-0.1599,-0.156,-0.1561,-0.1558,-0.1335,-0.1332,-0.1234,-0.1183,0,0,0,-0.1765,-0.1741,-0.1727,-0.1719,-0.169,-0.1642,-0.1638,-0.1606,-0.1602,-0.1563,-0.1558,-0.1336,-0.1332,-0.124,-0.1192,-0.1113,0,0,0,-0.1755,-0.1636,-0.1725,-0.1596,-0.169,-0.1579,-0.1639,-0.1558,-0.1512,-0.156,-0.1334,-0.1331,-0.1242,-0.1198,-0.1119,-0.1041,-0.1006,0,0,-0.1591,-0.1616,-0.1542,-0.1619,-0.1486,-0.1591,-0.1444,-0.1425,-0.1445,-0.1367,-0.1362,-0.1232,-0.1193,-0.1115,-0.0824,-0.0796,0,0,0,-0.1482,-0.1428,-0.1399,-0.1353,-0.1337,-0.1318,-0.1325,-0.1319,-0.1254,-0.14,-0.1184,-0.1162,-0.1117,-0.108,-0.1056,-0.1019,-0.1313,-0.1314,-0.1314,-0.1213,-0.1245,-0.1125,-0.1149,-0.1104,-0.1113,-0.108,-0.1073,-0.1118,-0.1067,-0.1043,-0.0863,-0.0819,-0.0802,-0.0762,-0.1006,-0.1006,-0.1005,-0.1005,-0.0975,-0.0904,-0.0968,-0.0874,-0.0909,-0.0831,-0.0836,-0.087,-0.0803,-0.0884,-0.0845,-0.0929,-0.077,-0.0738,-0.0998,-0.0999,-0.1,-0.1001,-0.1001,-0.0801,-0.0772,-0.0767,-0.0705,-0.0655,-0.0684,-0.0616,-0.0651,-0.0683,-0.0646,-0.0624,-0.0626,-0.063,-0.0633,-0.0633,-0.0632,-0.0632,-0.0631,-0.0631,-0.062,-0.0618,-0.0556,-0.053,-0.0506,-0.0479,-0.0489,-0.0466,-0.045,-0.0481,-0.0481,-0.053,-0.075,-0.0803,-0.0621,-0.0623,-0.0624,-0.0625,-0.0626,-0.0363,-0.0427,-0.0332,-0.0308,-0.028,-0.0227,-0.0274,-0.0225,-0.0212,-0.0177,-0.0236,-0.0394,-0.0421,-0.044,-0.0484,-0.0231,-0.0231,-0.0231,-0.023,-0.0214,-0.0232,-0.0143,-0.0102,-0.0067,-0.0099,0.001,0.0002,-0.0015,-0.0009,-0.0051,-0.0114,-0.0132,-0.0148,-0.0174,-0.0215,0.0101,0.0101,0.0102,-0.0057,-0.0074,0.0027,0.0008,0.0026,0.0043,0.0144,0.0193,0.016,0.0114,-0.0004,-0.0018,-0.012,-0.0152,-0.0196,-0.0235,-0.0312,0,0]}]]